Latest Weather Observations for Rhyll

IDV60801

Issued at 6:35 pm EST Thursday 28 August 2014 (issued every 30 minutes, with the page automatically refreshed every 10 minutes)

About weather observations | Map of weather stations | Latest weather observations for VIC | Other Formats
Station Details ID: 086373 Name: RHYLL Lat: -38.46 Lon: 145.31 Height: 13.4 m
Data from the previous 72 hours. | See also: Recent months at Rhyll
Date/Time
EST
Temp
°C
App
Temp
°C
Dew
Point
Rel
Hum
%
Delta-T
°C
Wind Press
QNH
hPa
Press
MSL
hPa
Rain
since 9 am
mm
Dir
 
Spd
km/h
Gust
km/h
Spd
kts
Gust
kts
28/06:30pm 11.3 10.1 10.2 93 0.6 SSE 7 9 4 5 1027.9 1027.9 0.2
28/06:00pm 11.3 10.1 9.7 90 0.8 SSE 6 9 3 5 1027.8 1027.8 0.2
28/05:30pm 12.3 11.0 10.0 86 1.2 S 7 9 4 5 1027.6 1027.6 0.2
28/05:00pm 13.8 12.9 10.8 82 1.6 S 6 9 3 5 1027.4 1027.4 0.2
28/04:30pm 13.6 12.5 10.8 83 1.5 S 7 9 4 5 1027.4 1027.4 0.2
28/04:00pm 14.5 13.7 10.9 79 1.9 S 6 9 3 5 1027.4 1027.4 0.2
28/03:30pm 15.0 14.2 11.2 78 2.0 S 6 9 3 5 1027.5 1027.5 0.2
28/03:00pm 15.9 15.4 11.9 77 2.2 S 6 9 3 5 1027.5 1027.5 0.2
28/02:30pm 15.9 15.2 11.5 75 2.4 S 6 9 3 5 1027.5 1027.5 0.2
28/02:00pm 16.1 15.5 12.3 78 2.1 S 7 9 4 5 1027.6 1027.6 0.2
28/01:30pm 14.2 13.7 10.6 79 1.9 SSE 4 6 2 3 1027.8 1027.8 0.2
28/01:00pm 14.3 13.9 11.1 81 1.7 SE 4 6 2 3 1028.1 1028.1 0.2
28/12:30pm 13.8 12.9 10.6 81 1.7 ESE 6 7 3 4 1028.4 1028.4 0.2
28/12:00pm 14.8 14.1 11.4 80 1.8 E 6 7 3 4 1028.6 1028.6 0.0
28/11:30am 14.7 14.5 11.7 82 1.6 ENE 4 6 2 3 1028.9 1028.9 0.0
28/11:00am 14.0 13.3 12.0 88 1.1 ENE 7 9 4 5 1029.2 1029.2 0.0
28/10:30am 11.0 9.7 9.8 92 0.6 N 7 11 4 6 1029.5 1029.5 0.0
28/10:00am 11.3 10.5 11.1 99 0.1 NNE 6 9 3 5 1029.6 1029.6 0.0
28/09:30am 9.7 8.3 9.6 99 0.0 ENE 7 9 4 5 1029.7 1029.7 0.0
28/09:00am 9.8 7.7 9.7 99 0.0 ENE 11 13 6 7 1029.8 1029.8 0.0
28/08:30am 8.8 6.4 8.7 99 0.0 NE 11 15 6 8 1029.7 1029.7 0.0
28/08:00am 8.4 5.9 8.3 99 0.0 NNE 11 15 6 8 1029.6 1029.6 0.0
28/07:30am 8.0 6.2 7.9 99 0.0 N 7 13 4 7 1029.6 1029.6 0.0
28/07:00am 8.6 6.2 8.5 99 0.0 NE 11 13 6 7 1029.3 1029.3 0.0
28/06:30am 8.6 6.2 8.5 99 0.0 NE 11 13 6 7 1029.2 1029.2 0.0
28/06:00am 8.7 6.7 8.6 99 0.0 N 9 13 5 7 1029.0 1029.0 0.0
28/05:30am 8.8 6.4 8.7 99 0.0 NNE 11 15 6 8 1028.6 1028.6 0.0
28/05:00am 9.0 6.7 8.9 99 0.0 NNE 11 17 6 9 1028.6 1028.6 0.0
28/04:30am 8.9 6.9 8.8 99 0.0 NNE 9 13 5 7 1028.6 1028.6 0.0
28/04:00am 8.5 6.8 8.4 99 0.0 NNE 7 11 4 6 1028.6 1028.6 0.0
28/03:30am 8.6 7.1 8.5 99 0.0 N 6 11 3 6 1028.6 1028.6 0.0
28/03:00am 8.7 7.1 8.6 99 0.0 N 7 13 4 7 1028.6 1028.6 0.0
28/02:30am 9.2 8.3 9.1 99 0.0 N 4 9 2 5 1028.6 1028.6 0.0
28/02:00am 8.8 7.8 8.7 99 0.0 NNW 4 6 2 3 1028.8 1028.8 0.0
28/01:30am 7.5 6.5 7.4 99 0.0 NW 2 4 1 2 1029.0 1029.0 0.0
28/01:00am 7.5 5.8 7.4 99 0.0 WNW 6 7 3 4 1029.0 1029.0 0.0
28/12:30am 7.3 5.3 7.2 99 0.0 WNW 7 9 4 5 1029.1 1029.1 0.0
28/12:00am 7.4 5.6 7.3 99 0.0 NW 6 9 3 5 1029.0 1029.0 0.0
 
Date/Time
EST
Temp
°C
App
Temp
°C
Dew
Point
Rel
Hum
%
Delta-T
°C
Wind Press
QNH
hPa
Press
MSL
hPa
Rain
since 9 am
mm
Dir
 
Spd
km/h
Gust
km/h
Spd
kts
Gust
kts
27/11:30pm 7.9 6.1 7.8 99 0.0 W 7 9 4 5 1029.2 1029.2 0.0
27/11:00pm 8.3 6.6 8.2 99 0.0 W 7 11 4 6 1029.1 1029.1 0.0
27/10:30pm 8.8 8.5 8.5 98 0.1 CALM 0 2 0 1 1029.1 1029.1 0.0
27/10:00pm 9.3 9.1 9.0 98 0.1 CALM 0 4 0 2 1028.9 1028.9 0.0
27/09:30pm 9.5 9.3 9.2 98 0.1 CALM 0 0 0 0 1028.9 1028.9 0.0
27/09:00pm 10.3 9.0 10.0 98 0.2 E 7 11 4 6 1028.9 1028.9 0.0
27/08:30pm 10.1 9.0 9.8 98 0.2 SSE 6 7 3 4 1028.7 1028.7 0.0
27/08:00pm 10.4 9.7 10.1 98 0.2 SSE 4 7 2 4 1028.6 1028.6 0.0
27/07:30pm 10.3 9.5 9.8 97 0.3 S 4 7 2 4 1028.3 1028.3 0.0
27/07:00pm 10.4 9.7 9.9 97 0.3 SSE 4 7 2 4 1028.4 1028.4 0.0
27/06:30pm 10.5 9.8 10.0 97 0.3 SE 4 7 2 4 1028.2 1028.2 0.0
27/06:00pm 10.6 9.5 10.1 97 0.3 S 6 9 3 5 1028.0 1028.0 0.0
27/05:30pm 10.6 9.0 10.1 97 0.3 SSW 9 19 5 10 1028.1 1028.1 0.0
27/05:00pm 10.9 9.7 10.4 97 0.3 S 7 13 4 7 1028.0 1028.0 0.0
27/04:30pm 11.2 9.3 10.4 95 0.4 SSW 11 19 6 10 1027.8 1027.8 0.0
27/04:00pm 11.8 9.9 10.5 92 0.7 SSW 11 20 6 11 1027.7 1027.7 0.0
27/03:30pm 14.0 13.4 12.2 89 1.0 S 7 13 4 7 1027.4 1027.4 0.0
27/03:00pm 14.0 13.4 12.4 90 0.9 S 7 11 4 6 1027.3 1027.3 0.0
27/02:30pm 13.7 13.0 12.1 90 0.9 S 7 13 4 7 1027.3 1027.3 0.0
27/02:00pm 13.0 11.4 11.4 90 0.8 SSW 11 20 6 11 1027.6 1027.6 0.0
27/01:30pm 15.0 14.6 12.5 85 1.4 S 6 7 3 4 1027.5 1027.5 0.0
27/01:00pm 14.2 14.1 12.1 87 1.1 E 4 4 2 2 1027.7 1027.7 0.0
27/12:30pm 12.7 12.0 11.4 92 0.7 NNW 6 9 3 5 1027.9 1027.9 0.0
27/12:00pm 11.9 11.1 11.7 99 0.1 NW 7 11 4 6 1028.2 1028.2 0.0
27/11:30am 11.1 9.7 10.9 99 0.1 NNW 9 11 5 6 1028.4 1028.4 0.0
27/11:00am 10.9 9.4 10.7 99 0.1 NNW 9 13 5 7 1028.7 1028.7 0.0
27/10:30am 10.3 9.0 10.1 99 0.1 NNW 7 11 4 6 1028.8 1028.8 0.0
27/10:00am 10.0 8.7 9.9 99 0.0 N 7 11 4 6 1028.7 1028.7 0.0
27/09:30am 9.6 7.4 9.5 99 0.0 NNE 11 15 6 8 1028.5 1028.5 0.0
27/09:00am 9.2 6.5 9.1 99 0.0 NNE 13 17 7 9 1028.3 1028.3 0.2
27/08:30am 8.9 6.5 8.8 99 0.0 NNE 11 17 6 9 1028.3 1028.3 0.2
27/08:00am 8.9 6.5 8.8 99 0.0 N 11 17 6 9 1027.9 1027.9 0.2
27/07:30am 9.6 7.8 9.5 99 0.0 N 9 13 5 7 1027.9 1027.9 0.2
27/07:00am 9.4 7.9 9.3 99 0.0 NNE 7 11 4 6 1027.5 1027.5 0.2
27/06:30am 9.1 7.2 9.0 99 0.0 NNE 9 15 5 8 1027.1 1027.1 0.2
27/06:00am 9.0 7.1 8.9 99 0.0 N 9 13 5 7 1027.0 1027.0 0.2
27/05:30am 9.2 6.9 9.1 99 0.0 N 11 15 6 8 1026.9 1026.9 0.2
27/05:00am 9.3 6.7 9.2 99 0.0 NNW 13 17 7 9 1026.8 1026.8 0.2
27/04:30am 9.1 6.7 8.8 98 0.1 N 11 15 6 8 1026.8 1026.8 0.2
27/04:00am 9.6 6.9 9.1 97 0.2 N 13 15 7 8 1026.4 1026.4 0.2
27/03:30am 10.6 8.9 9.8 95 0.4 N 9 13 5 7 1026.4 1026.4 0.2
27/03:00am 10.7 9.0 9.9 95 0.4 NNE 9 15 5 8 1026.3 1026.3 0.2
27/02:30am 10.9 8.9 10.0 94 0.5 N 11 15 6 8 1026.5 1026.5 0.2
27/02:00am 11.1 9.0 9.9 92 0.6 N 11 17 6 9 1026.2 1026.2 0.2
27/01:30am 11.7 9.6 9.9 89 0.9 N 11 13 6 7 1026.4 1026.4 0.2
27/01:00am 12.0 10.7 10.1 88 1.0 N 7 11 4 6 1026.3 1026.3 0.2
27/12:30am 12.0 10.4 10.2 89 0.9 N 9 13 5 7 1026.2 1026.2 0.2
27/12:00am 11.8 9.1 10.4 91 0.7 ENE 15 19 8 10 1026.1 1026.1 0.2
 
Date/Time
EST
Temp
°C
App
Temp
°C
Dew
Point
Rel
Hum
%
Delta-T
°C
Wind Press
QNH
hPa
Press
MSL
hPa
Rain
since 9 am
mm
Dir
 
Spd
km/h
Gust
km/h
Spd
kts
Gust
kts
26/11:30pm 11.7 8.5 9.8 88 1.0 ENE 17 20 9 11 1026.2 1026.2 0.2
26/11:00pm 11.9 9.0 9.8 87 1.1 E 15 17 8 9 1026.3 1026.3 0.2
26/10:30pm 12.1 8.9 10.0 87 1.1 E 17 19 9 10 1026.6 1026.6 0.2
26/10:00pm 12.1 9.7 10.0 87 1.1 E 13 17 7 9 1026.9 1026.9 0.2
26/09:30pm 12.2 9.4 10.1 87 1.1 E 15 17 8 9 1027.1 1027.1 0.2
26/09:00pm 12.4 9.6 10.1 86 1.2 E 15 19 8 10 1027.3 1027.3 0.2
26/08:30pm 12.3 10.6 9.9 85 1.2 E 9 13 5 7 1027.2 1027.2 0.2
26/08:00pm 12.3 11.3 10.2 87 1.1 SSE 6 9 3 5 1027.1 1027.1 0.2
26/07:30pm 12.8 12.0 10.9 88 1.0 SE 6 9 3 5 1026.7 1026.7 0.2
26/07:00pm 13.0 12.0 10.2 83 1.4 SSW 6 7 3 4 1026.7 1026.7 0.2
26/06:30pm 13.1 11.7 9.5 79 1.8 ENE 7 11 4 6 1026.3 1026.3 0.2
26/06:00pm 14.7 11.9 10.1 74 2.4 ESE 15 19 8 10 1025.7 1025.7 0.2
26/05:30pm 14.8 12.0 10.0 73 2.5 E 15 19 8 10 1025.8 1025.8 0.2
26/05:00pm 15.6 12.5 10.4 71 2.7 E 17 20 9 11 1025.8 1025.8 0.2
26/04:30pm 15.9 11.9 10.4 70 2.9 E 22 28 12 15 1025.7 1025.7 0.2
26/04:00pm 15.8 11.9 10.8 72 2.6 E 22 28 12 15 1025.7 1025.7 0.2
26/03:30pm 16.1 11.9 11.1 72 2.7 E 24 30 13 16 1025.6 1025.6 0.2
26/03:00pm 16.3 12.5 11.0 71 2.8 E 22 28 12 15 1025.7 1025.7 0.2
26/02:30pm 17.0 14.3 11.7 71 2.9 E 17 19 9 10 1026.0 1026.0 0.2
26/02:00pm 16.4 12.6 11.1 71 2.8 E 22 32 12 17 1026.1 1026.1 0.2
26/01:30pm 15.9 14.2 12.6 81 1.8 SSE 13 19 7 10 1026.4 1026.4 0.2
26/01:00pm 15.6 14.3 12.4 81 1.7 SSE 11 20 6 11 1027.0 1027.0 0.2
26/12:30pm 16.6 15.6 13.3 81 1.8 SSE 11 15 6 8 1027.6 1027.6 0.2
26/12:00pm 16.1 14.8 12.5 79 2.0 SSE 11 17 6 9 1027.9 1027.9 0.2
26/11:30am 15.5 14.8 12.1 80 1.9 SE 7 11 4 6 1028.1 1028.1 0.0
26/11:00am 15.6 13.8 12.0 79 1.9 ESE 13 19 7 10 1028.3 1028.3 0.0
26/10:30am 15.6 12.9 11.8 78 2.1 E 17 22 9 12 1028.6 1028.6 0.0
26/10:00am 15.1 12.3 11.5 79 1.9 E 17 20 9 11 1028.9 1028.9 0.0
26/09:30am 14.6 12.3 11.7 83 1.6 E 15 19 8 10 1029.1 1029.1 0.0
26/09:00am 13.8 12.5 12.4 91 0.8 E 11 15 6 8 1029.0 1029.0 0.2
26/08:30am 12.2 10.2 11.6 96 0.3 ESE 13 15 7 8 1029.1 1029.1 0.2
26/08:00am 11.4 10.0 10.9 97 0.3 E 9 13 5 7 1029.0 1029.0 0.2
26/07:30am 10.8 8.5 10.3 97 0.3 E 13 15 7 8 1029.0 1029.0 0.2
26/07:00am 10.2 7.7 9.7 97 0.2 E 13 17 7 9 1028.9 1028.9 0.2
26/06:30am 10.8 8.4 10.2 96 0.3 ESE 13 17 7 9 1028.5 1028.5 0.2
26/06:00am 10.9 8.9 10.3 96 0.3 ESE 11 17 6 9 1028.2 1028.2 0.2
26/05:30am 10.9 8.6 10.3 96 0.3 ESE 13 17 7 9 1027.8 1027.8 0.2
26/05:00am 10.8 8.4 10.2 96 0.3 ESE 13 17 7 9 1027.7 1027.7 0.2
26/04:30am 10.7 8.7 10.1 96 0.3 E 11 15 6 8 1027.7 1027.7 0.2
26/04:00am 10.9 8.9 10.3 96 0.3 ESE 11 13 6 7 1027.9 1027.9 0.2
26/03:30am 11.4 10.0 10.8 96 0.3 SE 9 17 5 9 1027.9 1027.9 0.2
26/03:00am 11.0 8.7 10.4 96 0.3 E 13 17 7 9 1028.2 1028.2 0.2
26/02:30am 11.5 9.4 11.0 97 0.3 ESE 13 19 7 10 1028.3 1028.3 0.2
26/02:00am 11.4 9.2 10.9 97 0.3 SE 13 20 7 11 1028.4 1028.4 0.2
26/01:30am 11.2 9.7 10.7 97 0.3 ESE 9 15 5 8 1028.6 1028.6 0.2
26/01:00am 10.7 9.1 10.2 97 0.3 ESE 9 13 5 7 1028.8 1028.8 0.2
26/12:30am 10.4 9.1 9.8 96 0.3 SE 7 13 4 7 1029.1 1029.1 0.2
26/12:00am 10.2 8.8 9.6 96 0.3 SSE 7 9 4 5 1029.1 1029.1 0.2
 
Date/Time
EST
Temp
°C
App
Temp
°C
Dew
Point
Rel
Hum
%
Delta-T
°C
Wind Press
QNH
hPa
Press
MSL
hPa
Rain
since 9 am
mm
Dir
 
Spd
km/h
Gust
km/h
Spd
kts
Gust
kts
25/11:30pm 10.6 7.8 10.0 96 0.3 ESE 15 19 8 10 1029.2 1029.2 0.2
25/11:00pm 10.4 9.6 9.6 95 0.4 SSE 4 7 2 4 1029.2 1029.2 0.2
25/10:30pm 10.6 9.5 9.8 95 0.4 S 6 9 3 5 1029.3 1029.3 0.2
25/10:00pm 10.7 9.4 9.9 95 0.4 SSE 7 11 4 6 1029.1 1029.1 0.2
25/09:30pm 11.5 8.5 10.7 95 0.4 ESE 17 19 9 10 1029.1 1029.1 0.2
25/09:00pm 11.7 8.7 10.8 94 0.5 E 17 19 9 10 1029.1 1029.1 0.2
25/08:30pm 12.0 9.9 11.1 94 0.5 ESE 13 19 7 10 1028.9 1028.9 0.2
25/08:00pm 12.3 10.6 11.2 93 0.6 SE 11 15 6 8 1028.8 1028.8 0.2
25/07:30pm 12.2 10.0 10.9 92 0.7 SE 13 19 7 10 1028.6 1028.6 0.2
25/07:00pm 12.2 9.3 10.9 92 0.7 SSE 17 22 9 12 1028.6 1028.6 0.2

Other Formats:

Comma delimited format used in spreadsheet applications
http://www.bom.gov.au/fwo/IDV60801/IDV60801.94892.axf

JavaScript Object Notation format (JSON) in row-major order
http://www.bom.gov.au/fwo/IDV60801/IDV60801.94892.json